Visibility
15.0 15.0 15.0 15.0 15.0 15.0 15.0 15.0 15.0 15.0 14.9 14.9 11.5 15.0 4.2 14.9 15.0 15.0 15.0 15.0 15.0 15.0 15.0 15.0 15.0 15.0 15.0 15.0 9.9 15.0 15.0 15.0 15.0 12.5 15.0 15.0 15.0 15.0 15.0 15.0 15.0 15.0 15.0 15.0 15.0 15.0 15.0
15.0 15.0 15.0 15.0 15.0 15.0 15.0 15.0 15.0 15.0 14.0 5.3 14.8 7.9 12.6 6.9 15.0 15.0 15.0 15.0 15.0 15.0 15.0 15.0 15.0 15.0 15.0 15.0 15.0 15.0 15.0 15.0 15.0 15.0 15.0 15.0 15.0 15.0 15.0 15.0 15.0 15.0 15.0 15.0 15.0 15.0 15.0
15.0 15.0 15.0 15.0 15.0 15.0 15.0 15.0 15.0 15.0 15.0 9.3 9.1 9.7 9.6 9.6 13.8 15.0 15.0 15.0 15.0 15.0 15.0 15.0 15.0 15.0 15.0 14.1 15.0 15.0 15.0 15.0 15.0 15.0 7.4 14.6 14.7 15.0 15.0 15.0 15.0 15.0 15.0 15.0 15.0 15.0 15.0
15.0 15.0 15.0 15.0 15.0 15.0 15.0 15.0 15.0 15.0 15.0 15.0 4.3 15.0 10.1 6.6 12.6 15.0 15.0 15.0 15.0 13.9 15.0 15.0 15.0 15.0 8.7 15.0 15.0 15.0 15.0 15.0 15.0 15.0 15.0 15.0 15.0 15.0 15.0 15.0 15.0 15.0 15.0 15.0 15.0 15.0 15.0
15.0 15.0 15.0 15.0 15.0 15.0 15.0 15.0 14.8 15.0 15.0 15.0 15.0 7.7 12.5 8.1 7.1 15.0 15.0 15.0 14.6 15.0 8.7 14.9 15.0 15.0 15.0 15.0 15.0 15.0 15.0 15.0 15.0 15.0 15.0 15.0 15.0 15.0 15.0 15.0 15.0 15.0 15.0 15.0 15.0 15.0 15.0
15.0 15.0 15.0 15.0 15.0 15.0 15.0 15.0 15.0 15.0 15.0 15.0 15.0 10.6 8.3 9.6 5.0 6.6 15.0 15.0 10.6 15.0 15.0 13.1 15.0 4.3 15.0 15.0 15.0 15.0 15.0 15.0 15.0 15.0 15.0 15.0 15.0 15.0 15.0 15.0 14.8 15.0 15.0 15.0 15.0 15.0 15.0
15.0 15.0 15.0 15.0 15.0 15.0 15.0 13.2 10.1 13.3 12.1 15.0 15.0 15.0 15.0 15.0 6.5 9.5 15.0 15.0 15.0 15.0 15.0 14.9 14.9 15.0 15.0 15.0 15.0 15.0 15.0 15.0 15.0 15.0 15.0 15.0 15.0 0.2 15.0 15.0 15.0 15.0 15.0 15.0 15.0 15.0 15.0
15.0 15.0 15.0 10.3 13.1 15.0 15.0 14.6 8.5 15.0 9.3 14.3 15.0 15.0 11.4 14.6 4.4 12.2 15.0 15.0 15.0 15.0 5.4 15.0 15.0 15.0 15.0 15.0 15.0 15.0 15.0 15.0 15.0 15.0 15.0 15.0 4.2 15.0 15.0 15.0 15.0 15.0 15.0 15.0 15.0 15.0 15.0
15.0 15.0 15.0 13.7 15.0 15.0 15.0 10.8 10.6 6.0 10.7 10.0 15.0 15.0 10.2 4.1 2.2 4.0 15.0 15.0 15.0 15.0 15.0 15.0 15.0 15.0 15.0 15.0 15.0 15.0 15.0 15.0 15.0 15.0 15.0 15.0 15.0 15.0 15.0 15.0 15.0 15.0 15.0 15.0 15.0 15.0 15.0
15.0 15.0 13.8 15.0 15.0 15.0 15.0 15.0 7.5 14.0 10.1 14.7 15.0 15.0 14.8 8.1 0.1 5.1 15.0 15.0 15.0 15.0 15.0 15.0 7.4 9.0 15.0 15.0 15.0 15.0 15.0 15.0 15.0 15.0 15.0 12.3 15.0 15.0 15.0 15.0 15.0 15.0 15.0 15.0 15.0 4.8 11.3
15.0 15.0 15.0 15.0 15.0 15.0 14.7 9.0 14.4 15.0 15.0 15.0 15.0 15.0 15.0 5.5 0.5 5.0 15.0 12.1 15.0 15.0 7.6 15.0 0.5 15.0 15.0 15.0 15.0 15.0 15.0 15.0 15.0 15.0 15.0 15.0 15.0 15.0 15.0 15.0 15.0 15.0 15.0 15.0 15.0 15.0 4.7
15.0 14.9 13.5 15.0 15.0 12.2 14.2 9.5 15.0 10.0 4.3 6.2 15.0 15.0 12.4 10.3 0.6 4.3 15.0 15.0 15.0 15.0 11.9 4.0 15.0 15.0 3.0 15.0 15.0 15.0 15.0 15.0 15.0 15.0 15.0 15.0 15.0 15.0 15.0 15.0 15.0 15.0 15.0 15.0 15.0 11.8 0.1
12.6 15.0 14.8 11.4 15.0 12.3 11.7 15.0 15.0 5.6 3.1 8.1 15.0 8.0 15.0 15.0 0.6 2.9 14.4 15.0 2.3 5.9 15.0 11.5 14.0 15.0 15.0 15.0 15.0 15.0 15.0 0.9 0.2 0.0 0.0 0.4 0.3 15.0 15.0 15.0 15.0 14.7 0.0 0.1 0.0 0.1 3.4
15.0 13.9 14.6 13.8 14.4 13.7 15.0 15.0 15.0 7.4 3.4 12.8 4.6 5.7 2.6 5.0 2.7 10.9 15.0 15.0 4.6 15.0 15.0 15.0 15.0 15.0 15.0 15.0 15.0 15.0 15.0 11.7 15.0 5.5 0.0 1.3 11.9 15.0 15.0 14.6 15.0 15.0 13.7 0.2 0.2 12.9 15.0
15.0 13.9 11.9 13.6 10.5 13.6 15.0 15.0 15.0 6.6 9.2 15.0 6.9 9.9 3.8 5.0 2.0 4.0 15.0 13.0 15.0 15.0 15.0 15.0 15.0 15.0 10.4 15.0 15.0 15.0 15.0 15.0 15.0 15.0 0.1 2.0 13.6 15.0 15.0 15.0 15.0 0.0 0.1 12.6 0.3 12.1 0.1
12.3 11.2 12.3 13.5 9.4 15.0 15.0 15.0 15.0 9.7 8.9 8.2 1.2 15.0 15.0 4.0 2.2 9.8 15.0 15.0 15.0 15.0 15.0 15.0 15.0 15.0 15.0 15.0 14.9 15.0 15.0 15.0 15.0 15.0 15.0 15.0 2.5 15.0 15.0 15.0 15.0 6.3 2.6 0.1 0.1 0.1 0.3
15.0 9.5 11.7 13.5 10.5 15.0 15.0 15.0 14.7 10.7 11.0 5.6 3.7 15.0 15.0 15.0 2.2 2.9 0.1 15.0 15.0 15.0 15.0 15.0 15.0 15.0 15.0 15.0 15.0 15.0 14.7 15.0 15.0 15.0 15.0 15.0 7.2 12.4 6.9 12.0 15.0 0.3 0.1 0.0 10.4 0.2 0.6
12.1 9.8 10.2 12.5 9.2 15.0 15.0 15.0 13.5 15.0 10.6 5.8 7.6 15.0 12.0 3.6 0.1 2.3 11.0 15.0 15.0 15.0 15.0 15.0 15.0 15.0 15.0 15.0 15.0 15.0 15.0 15.0 15.0 15.0 15.0 15.0 0.0 0.6 15.0 15.0 15.0 15.0 15.0 15.0 14.3 15.0 14.9
12.9 10.5 11.2 12.5 15.0 15.0 15.0 15.0 15.0 15.0 6.8 5.7 2.5 9.8 1.6 4.0 0.0 0.0 14.5 15.0 15.0 15.0 15.0 15.0 15.0 15.0 15.0 15.0 3.2 15.0 15.0 15.0 15.0 15.0 15.0 15.0 0.1 0.2 12.0 5.4 11.9 0.0 8.8 11.4 13.7 6.8 15.0
14.4 11.6 12.9 11.5 11.9 9.6 15.0 15.0 15.0 14.7 9.7 0.6 1.8 0.1 0.1 0.7 6.7 15.0 15.0 15.0 15.0 15.0 15.0 15.0 15.0 15.0 10.0 9.0 15.0 15.0 15.0 15.0 15.0 15.0 15.0 15.0 0.1 0.6 0.2 1.7 0.1 0.0 0.0 0.0 0.1 0.1 13.9
14.3 13.9 11.2 10.9 6.0 14.7 15.0 15.0 15.0 12.5 15.0 0.8 13.6 0.1 4.1 0.0 0.1 15.0 15.0 15.0 15.0 9.4 15.0 15.0 15.0 15.0 12.0 0.0 15.0 0.3 15.0 15.0 15.0 15.0 15.0 9.8 0.0 0.0 0.1 1.4 0.0 0.0 0.1 0.0 0.0 5.1 14.6
14.9 12.6 14.5 10.6 8.0 15.0 15.0 15.0 15.0 5.6 6.9 0.6 0.5 2.8 13.0 7.9 15.0 15.0 15.0 15.0 15.0 15.0 15.0 15.0 9.3 15.0 15.0 0.0 15.0 15.0 15.0 15.0 15.0 15.0 15.0 11.4 0.0 0.0 0.0 5.6 0.0 0.0 0.0 0.1 2.5 15.0 15.0
13.6 14.1 12.6 14.0 15.0 15.0 15.0 15.0 15.0 7.4 5.9 12.8 14.5 4.1 14.1 7.9 15.0 14.1 15.0 15.0 15.0 15.0 15.0 15.0 15.0 12.8 2.6 15.0 15.0 15.0 15.0 15.0 15.0 15.0 15.0 0.0 0.0 0.0 2.0 0.0 0.0 0.0 0.8 0.4 13.5 15.0 15.0
11.5 15.0 15.0 13.9 15.0 15.0 15.0 15.0 15.0 12.8 5.4 2.5 3.7 0.7 4.2 0.0 14.9 15.0 15.0 15.0 15.0 15.0 15.0 15.0 15.0 7.9 14.8 15.0 15.0 15.0 15.0 15.0 15.0 15.0 15.0 0.6 0.0 0.0 0.1 0.0 0.1 14.1 15.0 15.0 15.0 15.0 15.0
14.4 15.0 7.8 15.0 15.0 15.0 15.0 15.0 15.0 14.9 14.8 10.4 15.0 0.2 0.1 15.0 15.0 15.0 15.0 15.0 15.0 15.0 15.0 15.0 15.0 15.0 15.0 15.0 15.0 15.0 15.0 15.0 15.0 15.0 15.0 15.0 13.6 0.0 0.0 0.1 7.8 15.0 9.1 15.0 14.8 14.1 15.0
15.0 15.0 9.1 14.9 12.8 15.0 15.0 15.0 15.0 15.0 15.0 15.0 14.9 7.6 0.1 4.5 15.0 15.0 15.0 15.0 15.0 15.0 8.3 13.5 15.0 15.0 15.0 8.8 6.1 0.3 15.0 15.0 15.0 15.0 15.0 15.0 15.0 0.5 0.1 0.1 15.0 15.0 15.0 15.0 15.0 0.2 15.0
15.0 15.0 12.3 13.8 15.0 15.0 15.0 15.0 15.0 14.9 15.0 15.0 15.0 13.2 0.1 11.2 15.0 15.0 15.0 15.0 15.0 15.0 13.9 12.3 15.0 15.0 14.3 6.5 0.0 0.0 0.3 15.0 15.0 15.0 5.4 0.3 11.4 0.1 15.0 15.0 15.0 15.0 15.0 15.0 15.0 15.0 15.0
15.0 15.0 15.0 9.8 15.0 15.0 15.0 15.0 15.0 15.0 15.0 15.0 11.0 10.2 0.1 14.0 15.0 15.0 15.0 15.0 15.0 15.0 15.0 15.0 11.9 5.7 0.1 0.1 0.1 6.3 0.1 5.6 6.9 15.0 15.0 15.0 15.0 13.8 15.0 4.9 15.0 15.0 15.0 15.0 15.0 15.0 15.0
15.0 15.0 15.0 13.7 15.0 15.0 15.0 15.0 15.0 15.0 15.0 15.0 15.0 15.0 5.7 0.3 15.0 15.0 15.0 15.0 15.0 15.0 8.4 15.0 15.0 15.0 15.0 0.8 11.8 15.0 15.0 13.5 15.0 15.0 15.0 2.6 15.0 15.0 15.0 14.6 15.0 15.0 15.0 15.0 15.0 15.0 15.0